GEC255 ENBR-EKCH

Flight info

Callsign GEC255
Flight time 1h 6m
Altitude 39000
Route TINIG DCT AMSEV DCT TESPI
Aircraft A333/H-SDE3GHIJ2J3J5M1RVWXY/LB2D1

Departure

Time 2026-04-26 11:59
Airport Bergen Airport, Flesland (ENBR)

Arrival

Time 2026-04-26 13:06
Airport Copenhagen Kastrup Airport (EKCH)
Time Latitude Longitude Altitude Speed Heading
2026-04-26 11:42 60.28532 5.22663 151 ft 0 kts 81°
2026-04-26 11:50 60.28531 5.22653 151 ft 2 kts 77°
2026-04-26 11:51 60.28527 5.22621 151 ft 2 kts 69°
2026-04-26 11:51 60.28521 5.22590 151 ft 2 kts 89°
2026-04-26 11:51 60.28523 5.22557 151 ft 2 kts 119°
2026-04-26 11:51 60.28534 5.22533 151 ft 2 kts 157°
2026-04-26 11:52 60.28545 5.22525 151 ft 1 kts 165°
2026-04-26 11:52 60.28546 5.22524 151 ft 0 kts 166°
2026-04-26 11:54 60.28539 5.22526 151 ft 2 kts 169°
2026-04-26 11:55 60.28519 5.22533 151 ft 6 kts 170°
2026-04-26 11:55 60.28459 5.22553 150 ft 11 kts 171°
2026-04-26 11:55 60.28374 5.22581 150 ft 13 kts 171°
2026-04-26 11:55 60.28311 5.22553 149 ft 0 kts 218°
2026-04-26 11:56 60.28309 5.22547 149 ft 1 kts 226°
2026-04-26 11:56 60.28307 5.22544 149 ft 0 kts 227°
2026-04-26 11:57 60.28298 5.22528 149 ft 7 kts 219°
2026-04-26 11:57 60.28243 5.22504 149 ft 9 kts 179°
2026-04-26 11:57 60.28181 5.22531 148 ft 10 kts 166°
2026-04-26 11:57 60.28109 5.22549 147 ft 12 kts 182°
2026-04-26 11:58 60.28058 5.22434 146 ft 13 kts 258°
2026-04-26 11:58 60.28063 5.22247 145 ft 8 kts 322°
2026-04-26 11:58 60.28080 5.22238 145 ft 0 kts 349°
2026-04-26 11:58 60.28106 5.22228 145 ft 18 kts 349°
2026-04-26 11:59 60.28448 5.22118 152 ft 79 kts 351°
2026-04-26 11:59 60.29173 5.21875 157 ft 131 kts 351°
2026-04-26 11:59 60.30171 5.21523 416 ft 151 kts 349°
2026-04-26 11:59 60.31221 5.21134 993 ft 155 kts 348°
2026-04-26 12:00 60.32290 5.20729 1571 ft 160 kts 349°
2026-04-26 12:00 60.33447 5.20338 1980 ft 176 kts 350°
2026-04-26 12:00 60.34715 5.19929 2365 ft 195 kts 351°
2026-04-26 12:00 60.36122 5.19486 2645 ft 215 kts 350°
2026-04-26 12:01 60.37687 5.18979 2908 ft 240 kts 350°
2026-04-26 12:01 60.39402 5.18415 3397 ft 256 kts 350°
2026-04-26 12:01 60.41181 5.17821 4172 ft 261 kts 350°
2026-04-26 12:01 60.42988 5.17212 5006 ft 265 kts 350°
2026-04-26 12:02 60.44816 5.16597 5880 ft 268 kts 351°
2026-04-26 12:02 60.46687 5.16516 6709 ft 273 kts
2026-04-26 12:02 60.48437 5.18000 7557 ft 277 kts 37°
2026-04-26 12:02 60.49649 5.21028 8407 ft 281 kts 66°
2026-04-26 12:03 60.50152 5.24870 9249 ft 284 kts 84°
2026-04-26 12:03 60.49994 5.28863 10073 ft 288 kts 107°
2026-04-26 12:03 60.49055 5.32403 10802 ft 293 kts 131°
2026-04-26 12:03 60.47393 5.34950 11176 ft 312 kts 157°
2026-04-26 12:04 60.45256 5.36262 11520 ft 330 kts 167°
2026-04-26 12:04 60.42971 5.37265 12060 ft 341 kts 168°
2026-04-26 12:04 60.40631 5.38274 12734 ft 346 kts 168°
2026-04-26 12:04 60.38232 5.39341 13443 ft 350 kts 168°
2026-04-26 12:05 60.35907 5.40693 14119 ft 355 kts 158°
2026-04-26 12:05 60.33682 5.42921 14800 ft 359 kts 151°
2026-04-26 12:05 60.31528 5.45519 15456 ft 362 kts 148°
2026-04-26 12:05 60.29417 5.48331 16105 ft 366 kts 146°
2026-04-26 12:06 60.27316 5.51271 16739 ft 369 kts 145°
2026-04-26 12:06 60.25210 5.54265 17329 ft 372 kts 145°
2026-04-26 12:06 60.23083 5.57287 17901 ft 376 kts 145°
2026-04-26 12:06 60.20904 5.60356 18498 ft 379 kts 145°
2026-04-26 12:07 60.18762 5.63346 19040 ft 382 kts 146°
2026-04-26 12:07 60.16566 5.66388 19573 ft 385 kts 146°
2026-04-26 12:07 60.14348 5.69441 20092 ft 388 kts 146°
2026-04-26 12:07 60.12112 5.72509 20624 ft 391 kts 146°
2026-04-26 12:08 60.09858 5.75595 21121 ft 394 kts 146°
2026-04-26 12:08 60.07585 5.78701 21588 ft 397 kts 146°
2026-04-26 12:08 60.05290 5.81833 22073 ft 400 kts 146°
2026-04-26 12:08 60.02980 5.84981 22525 ft 403 kts 146°
2026-04-26 12:09 60.00656 5.88144 22984 ft 406 kts 146°
2026-04-26 12:09 59.98314 5.91326 23428 ft 408 kts 146°
2026-04-26 12:09 59.95957 5.94523 23862 ft 411 kts 146°
2026-04-26 12:09 59.93585 5.97735 24281 ft 414 kts 146°
2026-04-26 12:10 59.91196 6.00963 24681 ft 416 kts 146°
2026-04-26 12:10 59.88790 6.04210 25058 ft 420 kts 146°
2026-04-26 12:10 59.86357 6.07487 25410 ft 423 kts 146°
2026-04-26 12:10 59.83905 6.10783 25784 ft 426 kts 146°
2026-04-26 12:11 59.81436 6.14097 26145 ft 429 kts 146°
2026-04-26 12:11 59.78951 6.17425 26516 ft 431 kts 146°
2026-04-26 12:11 59.76489 6.20717 26910 ft 433 kts 146°
2026-04-26 12:11 59.73954 6.24101 27245 ft 436 kts 146°
2026-04-26 12:12 59.71456 6.27427 27539 ft 440 kts 146°
2026-04-26 12:12 59.68908 6.30816 27835 ft 443 kts 146°
2026-04-26 12:12 59.66341 6.34223 28189 ft 444 kts 146°
2026-04-26 12:12 59.64610 6.36516 28456 ft 444 kts 146°
2026-04-26 12:13 59.61200 6.41026 28909 ft 447 kts 146°
2026-04-26 12:13 59.56006 6.47875 29001 ft 451 kts 146°
2026-04-26 12:14 59.50803 6.54709 29004 ft 449 kts 146°
2026-04-26 12:14 59.45600 6.61518 29001 ft 449 kts 146°
2026-04-26 12:15 59.40380 6.68322 29122 ft 453 kts 147°
2026-04-26 12:15 59.37751 6.71740 29445 ft 454 kts 147°
2026-04-26 12:15 59.35107 6.75171 29768 ft 456 kts 147°
2026-04-26 12:15 59.32450 6.78611 30046 ft 459 kts 147°
2026-04-26 12:16 59.29782 6.82061 30331 ft 461 kts 147°
2026-04-26 12:16 59.27101 6.85519 30598 ft 463 kts 147°
2026-04-26 12:16 59.24408 6.88986 30878 ft 465 kts 147°
2026-04-26 12:16 59.21701 6.92466 31166 ft 467 kts 147°
2026-04-26 12:17 59.20336 6.94217 31274 ft 468 kts 147°
2026-04-26 12:17 59.17796 6.97473 31537 ft 469 kts 147°
2026-04-26 12:17 59.15054 7.00980 31811 ft 471 kts 147°
2026-04-26 12:17 59.12344 7.04440 32044 ft 473 kts 147°
2026-04-26 12:18 59.09587 7.07953 32327 ft 474 kts 147°
2026-04-26 12:18 59.06827 7.11462 32675 ft 473 kts 147°
2026-04-26 12:18 59.04077 7.14953 33033 ft 471 kts 147°
2026-04-26 12:18 59.01337 7.18423 33376 ft 470 kts 147°
2026-04-26 12:19 58.98604 7.21879 33705 ft 469 kts 147°
2026-04-26 12:19 58.95869 7.25331 34009 ft 469 kts 147°
2026-04-26 12:19 58.93139 7.28769 34297 ft 468 kts 147°
2026-04-26 12:19 58.90407 7.32203 34602 ft 468 kts 147°
2026-04-26 12:20 58.87680 7.35625 34884 ft 467 kts 147°
2026-04-26 12:20 58.84958 7.39033 35167 ft 466 kts 147°
2026-04-26 12:20 58.82236 7.42436 35447 ft 465 kts 147°
2026-04-26 12:20 58.79521 7.45822 35727 ft 464 kts 147°
2026-04-26 12:21 58.76810 7.49198 35983 ft 464 kts 147°
2026-04-26 12:21 58.74098 7.52568 36245 ft 463 kts 147°
2026-04-26 12:21 58.71397 7.55919 36512 ft 461 kts 147°
2026-04-26 12:21 58.68700 7.59259 36748 ft 461 kts 147°
2026-04-26 12:22 58.66002 7.62592 36951 ft 461 kts 147°
2026-04-26 12:22 58.63306 7.65918 37143 ft 461 kts 147°
2026-04-26 12:22 58.60636 7.69205 37330 ft 462 kts 147°
2026-04-26 12:22 58.58189 7.72213 37509 ft 461 kts 147°
2026-04-26 12:23 58.55523 7.75485 37738 ft 461 kts 147°
2026-04-26 12:23 58.52827 7.78786 37931 ft 460 kts 147°
2026-04-26 12:23 58.50130 7.82084 38120 ft 460 kts 147°
2026-04-26 12:23 58.47432 7.85375 38281 ft 460 kts 147°
2026-04-26 12:24 58.44728 7.88668 38445 ft 460 kts 148°
2026-04-26 12:24 58.42033 7.91945 38606 ft 461 kts 148°
2026-04-26 12:24 58.39325 7.95231 38781 ft 460 kts 148°
2026-04-26 12:25 58.33917 8.01775 38987 ft 461 kts 148°
2026-04-26 12:25 58.31212 8.05040 38997 ft 460 kts 148°
2026-04-26 12:25 58.25812 8.11537 38998 ft 459 kts 148°
2026-04-26 12:26 58.20424 8.17997 38998 ft 458 kts 148°
2026-04-26 12:26 58.15032 8.24439 38999 ft 457 kts 148°
2026-04-26 12:27 58.09647 8.30849 39001 ft 457 kts 148°
2026-04-26 12:27 58.04295 8.37197 38998 ft 457 kts 148°
2026-04-26 12:28 57.98901 8.43571 38998 ft 457 kts 148°
2026-04-26 12:28 57.93513 8.49916 39001 ft 457 kts 148°
2026-04-26 12:29 57.88103 8.56264 39002 ft 461 kts 148°
2026-04-26 12:30 57.79837 8.65918 39004 ft 472 kts 148°
2026-04-26 12:30 57.74218 8.72452 38999 ft 479 kts 148°
2026-04-26 12:31 57.65596 8.82300 39001 ft 488 kts 150°
2026-04-26 12:31 57.59660 8.88426 39001 ft 487 kts 152°
2026-04-26 12:32 57.53699 8.94409 39002 ft 487 kts 152°
2026-04-26 12:33 57.44810 9.03370 39001 ft 487 kts 152°
2026-04-26 12:33 57.38865 9.09378 39000 ft 486 kts 152°
2026-04-26 12:34 57.32921 9.15368 38999 ft 486 kts 152°
2026-04-26 12:34 57.26966 9.21347 39002 ft 486 kts 152°
2026-04-26 12:35 57.21014 9.27297 39000 ft 486 kts 152°
2026-04-26 12:35 57.15059 9.33226 39000 ft 487 kts 152°
2026-04-26 12:36 57.09096 9.39142 39005 ft 487 kts 152°
2026-04-26 12:36 57.03129 9.45041 39000 ft 487 kts 152°
2026-04-26 12:37 56.97168 9.50913 39000 ft 487 kts 152°
2026-04-26 12:37 56.91198 9.56772 39001 ft 487 kts 152°
2026-04-26 12:38 56.85215 9.62623 39000 ft 487 kts 152°
2026-04-26 12:38 56.80245 9.67467 39008 ft 487 kts 152°
2026-04-26 12:39 56.74262 9.73278 39000 ft 487 kts 152°
2026-04-26 12:39 56.68279 9.79070 39000 ft 487 kts 152°
2026-04-26 12:40 56.62296 9.84839 38998 ft 487 kts 152°
2026-04-26 12:40 56.55902 9.90982 39001 ft 487 kts 152°
2026-04-26 12:41 56.49911 9.96716 39000 ft 487 kts 152°
2026-04-26 12:41 56.43955 10.02397 38998 ft 487 kts 152°
2026-04-26 12:42 56.37937 10.08116 38722 ft 484 kts 152°
2026-04-26 12:42 56.34973 10.10926 38432 ft 477 kts 152°
2026-04-26 12:42 56.32062 10.13680 38212 ft 468 kts 152°
2026-04-26 12:42 56.29204 10.16380 37939 ft 461 kts 152°
2026-04-26 12:43 56.26375 10.19047 37555 ft 457 kts 152°
2026-04-26 12:43 56.23562 10.21695 37073 ft 455 kts 153°
2026-04-26 12:43 56.20753 10.24334 36546 ft 454 kts 153°
2026-04-26 12:43 56.17951 10.26963 36022 ft 454 kts 153°
2026-04-26 12:44 56.15158 10.29579 35461 ft 454 kts 153°
2026-04-26 12:44 56.12353 10.32202 34867 ft 454 kts 153°
2026-04-26 12:44 56.09549 10.34820 34248 ft 455 kts 153°
2026-04-26 12:44 56.06744 10.37434 33605 ft 456 kts 153°
2026-04-26 12:45 56.03927 10.40055 32942 ft 457 kts 153°
2026-04-26 12:45 56.01098 10.42683 32264 ft 458 kts 153°
2026-04-26 12:45 55.98264 10.45311 31606 ft 459 kts 153°
2026-04-26 12:45 55.95442 10.47924 31031 ft 457 kts 153°
2026-04-26 12:46 55.92661 10.50642 30496 ft 454 kts 146°
2026-04-26 12:46 55.90303 10.54339 29970 ft 451 kts 129°
2026-04-26 12:46 55.88653 10.59048 29452 ft 448 kts 113°
2026-04-26 12:46 55.87818 10.64347 28952 ft 444 kts 99°
2026-04-26 12:47 55.87277 10.69743 28459 ft 441 kts 104°
2026-04-26 12:47 55.86347 10.74927 27959 ft 438 kts 111°
2026-04-26 12:47 55.85219 10.79934 27453 ft 434 kts 112°
2026-04-26 12:47 55.84055 10.84870 26981 ft 431 kts 112°
2026-04-26 12:48 55.82916 10.89771 26488 ft 428 kts 112°
2026-04-26 12:48 55.81786 10.94649 25997 ft 424 kts 112°
2026-04-26 12:48 55.80665 10.99475 25510 ft 421 kts 112°
2026-04-26 12:48 55.79545 11.04279 25002 ft 418 kts 112°
2026-04-26 12:49 55.78434 11.09033 24529 ft 415 kts 112°
2026-04-26 12:49 55.77329 11.13744 24028 ft 412 kts 112°
2026-04-26 12:49 55.76232 11.18415 23522 ft 409 kts 112°
2026-04-26 12:49 55.75139 11.23055 23046 ft 406 kts 112°
2026-04-26 12:50 55.74050 11.27667 22537 ft 403 kts 113°
2026-04-26 12:50 55.72970 11.32232 22051 ft 400 kts 113°
2026-04-26 12:50 55.71897 11.36755 21557 ft 397 kts 113°
2026-04-26 12:50 55.70830 11.41246 21055 ft 394 kts 113°
2026-04-26 12:51 55.69768 11.45708 20575 ft 391 kts 113°
2026-04-26 12:51 55.68733 11.50044 20254 ft 383 kts 113°
2026-04-26 12:51 55.67708 11.54334 20065 ft 372 kts 113°
2026-04-26 12:51 55.66714 11.58486 19998 ft 359 kts 113°
2026-04-26 12:52 55.65759 11.62463 19995 ft 344 kts 113°
2026-04-26 12:52 55.64834 11.66314 19996 ft 338 kts 113°
2026-04-26 12:52 55.63913 11.70138 19991 ft 337 kts 113°
2026-04-26 12:52 55.62995 11.73943 19642 ft 335 kts 113°
2026-04-26 12:53 55.62079 11.77731 18949 ft 335 kts 113°
2026-04-26 12:53 55.61164 11.81511 18162 ft 333 kts 113°
2026-04-26 12:53 55.60254 11.85263 17440 ft 330 kts 113°
2026-04-26 12:53 55.59351 11.88978 16705 ft 327 kts 113°
2026-04-26 12:54 55.58458 11.92647 15998 ft 323 kts 113°
2026-04-26 12:54 55.57574 11.96276 15278 ft 320 kts 113°
2026-04-26 12:54 55.56699 11.99859 14575 ft 316 kts 113°
2026-04-26 12:54 55.55757 12.03342 13909 ft 311 kts 124°
2026-04-26 12:55 55.54262 12.06006 13247 ft 306 kts 148°
2026-04-26 12:55 55.52342 12.07570 12565 ft 302 kts 161°
2026-04-26 12:55 55.50358 12.08733 11885 ft 299 kts 162°
2026-04-26 12:55 55.48378 12.09841 11218 ft 297 kts 163°
2026-04-26 12:56 55.46423 12.10930 10540 ft 294 kts 163°
2026-04-26 12:56 55.44471 12.12016 9857 ft 291 kts 163°
2026-04-26 12:56 55.42528 12.12894 9183 ft 287 kts 176°
2026-04-26 12:56 55.40571 12.12457 8506 ft 283 kts 200°
2026-04-26 12:57 55.38799 12.10998 7825 ft 280 kts 208°
2026-04-26 12:57 55.37019 12.09686 7146 ft 278 kts 191°
2026-04-26 12:57 55.35110 12.09782 6470 ft 276 kts 164°
2026-04-26 12:58 55.32143 12.13783 5131 ft 272 kts 123°
2026-04-26 12:58 55.31504 12.16858 4454 ft 270 kts 95°
2026-04-26 12:58 55.31697 12.20057 3799 ft 268 kts 75°
2026-04-26 12:58 55.32332 12.23160 3119 ft 266 kts 63°
2026-04-26 12:59 55.33355 12.25810 2755 ft 261 kts 46°
2026-04-26 12:59 55.34720 12.27903 2679 ft 261 kts 37°
2026-04-26 12:59 55.36176 12.29756 2677 ft 262 kts 34°
2026-04-26 12:59 55.37677 12.31572 2676 ft 262 kts 34°
2026-04-26 13:00 55.39189 12.33367 2663 ft 261 kts 33°
2026-04-26 13:00 55.40686 12.35135 2401 ft 258 kts 33°
2026-04-26 13:00 55.42178 12.36892 2199 ft 258 kts 33°
2026-04-26 13:00 55.43673 12.38652 2166 ft 259 kts 33°
2026-04-26 13:01 55.45185 12.40332 2166 ft 251 kts 32°
2026-04-26 13:01 55.46553 12.42077 2166 ft 236 kts 39°
2026-04-26 13:01 55.47757 12.43916 2163 ft 222 kts 41°
2026-04-26 13:01 55.48880 12.45673 2161 ft 209 kts 41°
2026-04-26 13:02 55.49937 12.47308 2161 ft 196 kts 40°
2026-04-26 13:02 55.50946 12.48841 2198 ft 187 kts 40°
2026-04-26 13:02 55.51924 12.50316 2187 ft 185 kts 40°
2026-04-26 13:02 55.52568 12.51297 2064 ft 182 kts 40°
2026-04-26 13:03 55.53486 12.52717 1823 ft 169 kts 41°
2026-04-26 13:03 55.54333 12.54032 1588 ft 156 kts 40°
2026-04-26 13:03 55.55115 12.55244 1368 ft 144 kts 41°
2026-04-26 13:03 55.55847 12.56417 1100 ft 137 kts 41°
2026-04-26 13:04 55.56552 12.57488 981 ft 135 kts 39°
2026-04-26 13:04 55.57274 12.58576 797 ft 136 kts 40°
2026-04-26 13:04 55.57983 12.59674 632 ft 136 kts 41°
2026-04-26 13:04 55.58692 12.60770 477 ft 135 kts 40°
2026-04-26 13:05 55.59397 12.61877 296 ft 137 kts 40°
2026-04-26 13:05 55.60105 12.62972 114 ft 134 kts 40°
2026-04-26 13:05 55.60797 12.64050 33 ft 123 kts 41°
2026-04-26 13:05 55.61291 12.64825 26 ft 67 kts 41°
2026-04-26 13:06 55.61587 12.65278 20 ft 54 kts 40°
2026-04-26 13:06 55.61858 12.65696 26 ft 49 kts 42°
2026-04-26 13:06 55.62030 12.65968 25 ft 27 kts 41°
2026-04-26 13:06 55.62151 12.66181 21 ft 15 kts 78°
2026-04-26 13:07 55.62124 12.66248 20 ft 3 kts 169°
2026-04-26 13:07 55.62091 12.66262 23 ft 6 kts 164°
2026-04-26 13:07 55.62041 12.66288 26 ft 9 kts 162°
2026-04-26 13:07 55.61971 12.66327 23 ft 13 kts 162°
2026-04-26 13:08 55.61868 12.66395 23 ft 18 kts 144°
2026-04-26 13:08 55.61859 12.66607 23 ft 20 kts 78°
2026-04-26 13:08 55.61888 12.66868 20 ft 18 kts 83°
2026-04-26 13:08 55.61867 12.67008 21 ft 11 kts 97°
2026-04-26 13:09 55.61877 12.67143 20 ft 5 kts 77°
2026-04-26 13:09 55.61878 12.67146 20 ft 0 kts 77°